RH
59 67 71 53 59 71 72 74 68 64 61 61 56 46 39 39 40 41 34 31 27 28 30 31 33 34 33 33 33 31 31 33 35 32 38 42 42 40 41 42 40 36 35 33
80 86 56 44 59 80 77 74 67 67 68 61 53 46 42 41 42 42 36 34 27 30 31 33 34 35 33 31 29 31 32 34 31 36 40 40 39 38 37 33 32 30 31 37
88 78 61 61 69 87 80 81 68 71 73 57 54 50 44 42 43 38 35 33 30 29 34 32 33 34 34 31 30 29 30 30 43 38 37 35 34 35 32 31 34 38 42 42
86 79 92 70 76 87 83 78 73 73 75 64 58 47 41 43 38 36 36 37 32 29 33 33 32 34 34 31 31 28 27 28 34 35 35 34 35 34 36 39 41 42 40 36
77 78 89 75 80 87 90 82 75 78 69 76 68 60 46 46 37 36 36 36 32 29 32 35 34 35 33 32 30 28 28 31 32 32 34 36 37 38 40 44 44 40 35 30
82 84 91 64 88 90 83 82 78 80 76 70 59 58 45 45 38 36 37 37 34 31 33 35 36 36 34 33 31 32 32 33 35 37 37 37 39 42 44 43 38 32 27 27
95 97 90 90 98 97 91 90 95 89 84 62 57 57 48 43 35 33 33 34 34 31 35 36 36 35 36 34 34 36 37 38 40 39 37 39 43 46 43 38 32 31 31 30
97 97 91 91 93 95 93 86 73 74 67 56 53 52 45 41 39 36 36 36 36 33 34 34 34 35 37 36 37 39 40 41 41 38 39 43 47 45 40 37 34 35 35 33
90 88 91 90 88 90 91 90 70 65 54 56 52 49 43 38 38 37 37 38 37 36 36 36 36 37 38 38 40 41 42 42 40 39 44 45 43 41 41 39 38 38 37 34
96 92 91 95 93 93 89 75 76 61 61 58 53 50 48 38 34 35 36 40 40 38 40 40 38 38 39 41 41 43 44 42 41 48 45 43 42 42 42 41 39 39 38 35
97 96 97 97 91 94 95 85 74 60 56 57 57 51 43 39 36 36 35 37 41 37 41 44 42 42 43 44 45 46 44 46 51 46 43 42 44 45 44 43 41 40 37 31
95 96 98 82 80 83 87 79 67 62 60 54 51 52 45 40 37 34 34 36 39 39 42 44 44 44 46 48 48 47 49 53 48 44 43 44 46 46 45 45 43 41 35 31
85 88 97 94 80 86 83 75 72 67 60 54 51 52 46 45 42 38 35 35 39 41 42 43 43 46 48 50 51 50 54 50 46 44 46 47 47 48 47 47 43 38 33 32
82 77 76 70 62 70 78 77 66 63 64 58 54 55 46 49 46 43 37 35 39 43 44 45 47 51 53 53 51 53 56 51 49 48 47 48 51 51 50 48 43 36 34 30
83 74 67 62 58 62 65 70 72 67 62 59 54 54 51 53 49 47 43 34 33 39 43 47 51 54 54 52 51 57 54 52 49 48 49 52 53 53 50 48 41 35 32 28
78 76 66 66 62 60 60 61 60 58 58 59 52 53 58 53 48 41 37 32 32 38 46 52 54 55 53 50 57 61 53 47 46 48 52 54 55 52 49 44 37 34 32 31
80 79 69 68 62 62 61 51 52 50 50 52 50 48 51 54 45 38 32 31 33 40 49 51 53 52 51 55 60 54 46 45 47 52 54 55 54 51 47 40 36 34 34 32
82 80 76 77 65 72 52 49 48 49 49 49 48 49 52 52 45 40 37 36 40 45 51 51 52 53 54 59 54 44 43 45 51 54 55 54 51 48 43 38 36 35 33 32
83 87 84 83 81 68 56 52 51 51 49 46 45 48 48 52 48 47 44 45 48 50 50 53 54 57 63 54 45 40 44 50 53 54 54 51 48 46 40 38 34 30 31 31
88 88 90 84 75 74 59 53 50 53 51 44 44 44 44 46 48 47 49 50 50 51 54 56 59 61 57 42 37 41 47 51 53 55 51 49 49 42 38 31 28 32 31 27
94 94 94 93 90 67 59 55 52 53 52 48 45 45 47 49 49 50 51 53 56 57 58 60 59 52 41 36 39 44 49 52 54 50 51 50 43 36 29 28 30 30 26 24
85 92 89 96 95 82 64 60 59 60 57 56 52 49 49 50 50 53 53 53 53 57 58 47 41 35 35 40 44 47 50 50 48 52 51 43 34 28 27 30 31 27 26 26
81 67 69 68 70 68 66 66 63 60 59 56 54 53 53 54 55 55 55 51 47 42 39 35 33 36 41 44 46 49 49 47 51 51 40 31 27 28 33 33 30 29 29 29
67 69 68 69 66 68 67 68 66 64 58 57 58 56 55 56 55 51 47 45 37 34 33 35 38 42 43 45 48 48 51 53 49 36 28 27 29 35 36 34 32 32 31 31
72 72 71 69 70 71 72 69 62 53 54 59 58 57 54 54 55 52 48 39 37 37 39 42 43 43 43 46 49 54 54 43 32 27 27 32 38 39 37 34 33 33 32 34
69 68 70 68 67 59 55 53 56 64 67 64 63 63 61 60 55 50 45 42 42 43 43 42 42 43 47 53 52 51 39 30 27 29 33 39 40 41 38 34 33 34 34 35